Location: Sungai Buloh
(3.1000°N, 113.0000°E)
Time: 21:30:16
(UTC+00:00)

Meteor 1-28 Rocket - Pass Details

Date: 12 January 2026
Orbit: 427 x 438 km, 97.6° (Epoch: 11 February)

Event Time Altitude Azimuth Distance (km) Brightness Sun altitude
Rises 20:59:09 0° 167° (SSE) 2,427 7.1 -23.7°
Reaches altitude 10° 21:01:11 10° 166° (SSE) 1,554 6.0 -23.3°
Enters shadow 21:03:51 54° 157° (SSE) 538 3.4 -22.7°
